ANNABA current weather conditions

sailwx.info

Wind from 300 at 5 knots

Air temperature 13.0° C
Dewpoint 11.0° C

Last reported at 2015-Mar-31 23:30 UTC.
Time now 2015-Apr-01 01:15 UTC

Location: N 36°50' E 007°49'.
View on Google Maps.

See reports from other nearby stations

  
Tides and Currents Weather Stations Pressure Air Temp Water Temp Dewpoint Dewpoint Depression Visibility Wind Speed Wind Dir Waves Ship Positions
date/time (UTC)wind fromknots sea level pressurealtimeterstation pressurevisibilityair tempwater tempwave heightnotes
2015-Apr-01 00:30 12.0
2015-Apr-01 00:00 260 3 12.0
2015-Mar-31 23:30 300 5 13.0
2015-Mar-31 23:00 350 3 13.0
2015-Mar-31 22:30 090 7 14.0
2015-Mar-31 22:00 100 7 14.0
2015-Mar-31 21:30 100 5 14.0
2015-Mar-31 21:00 080 4 15.0
2015-Mar-31 20:30 100 3 15.0
2015-Mar-31 20:00 130 3 17.0
2015-Mar-31 19:30 220 3 17.0
2015-Mar-31 19:00 220 6 17.0
2015-Mar-31 18:30 220 5 17.0
2015-Mar-31 18:00 100 5 18.0
2015-Mar-31 17:30 070 5 21.0
2015-Mar-31 17:00 010 7 22.0
2015-Mar-31 16:30 030 11 22.0
2015-Mar-31 16:00 040 15 22.0
2015-Mar-31 15:30 050 13 23.0
2015-Mar-31 15:00 030 9 24.0
2015-Mar-31 14:30 050 6 24.0
2015-Mar-31 14:00 050 11 24.0
2015-Mar-31 13:30 090 4 24.0
2015-Mar-31 13:00 070 3 24.0
2015-Mar-31 12:30 090 6 24.0
2015-Mar-31 12:00 22.0
2015-Mar-31 11:30 070 5 21.0
2015-Mar-31 11:00 060 10 21.0
2015-Mar-31 10:30 050 9 21.0
2015-Mar-31 10:00 290 11 21.0
2015-Mar-31 09:30 270 9 20.0
2015-Mar-31 09:00 230 7 19.0
2015-Mar-31 08:30 220 6 18.0
2015-Mar-31 08:00 250 7 17.0
2015-Mar-31 07:30 250 6 15.0
2015-Mar-31 07:00 250 2 12.0
2015-Mar-31 06:30 230 4 12.0
2015-Mar-31 06:00 230 5 5.412.0
2015-Mar-31 05:30 260 6 5.413.0
2015-Mar-31 05:00 250 5 5.413.0
2015-Mar-31 04:30 250 7 13.0
2015-Mar-31 04:00 230 8 13.0
2015-Mar-31 03:30 310 7 13.0
2015-Mar-31 03:00 290 5 13.0
2015-Mar-31 02:30 300 8 14.0
2015-Mar-31 02:00 280 7 14.0
2015-Mar-31 01:30 300 8 15.0
2015-Mar-31 01:00 290 12 15.0
2015-Mar-31 00:30 200 10 15.0
2015-Mar-31 00:00 240 11 15.0
2015-Mar-30 23:30 280 14 15.0
2015-Mar-30 23:00 260 12 15.0
2015-Mar-30 22:30 280 12 15.0
2015-Mar-30 22:00 270 9 15.0
2015-Mar-30 21:30 260 10 15.0
2015-Mar-30 21:00 300 7 15.0
2015-Mar-30 20:30 250 7 15.0
2015-Mar-30 20:00 020 16 17.0
2015-Mar-30 19:30 020 16 17.0
2015-Mar-30 19:00 020 14 18.0
2015-Mar-30 18:30 020 12 18.0
2015-Mar-30 18:00 330 12 20.0
2015-Mar-30 17:30 320 13 21.0
2015-Mar-30 17:00 330 12 21.0
2015-Mar-30 16:30 330 18 22.0
2015-Mar-30 16:00 330 16 22.0
2015-Mar-30 15:30 320 10 22.0
2015-Mar-30 15:00 330 12 21.0
2015-Mar-30 14:30 320 15 21.0
2015-Mar-30 14:00 310 10 21.0
2015-Mar-30 13:30 340 17 21.0
2015-Mar-30 13:00 320 15 21.0
2015-Mar-30 12:30 320 12 21.0
2015-Mar-30 12:00 310 15 21.0
2015-Mar-30 11:30 300 14 21.0
2015-Mar-30 11:00 300 14 21.0
2015-Mar-30 10:30 260 10 20.0
2015-Mar-30 10:00 260 12 19.0
2015-Mar-30 09:30 280 11 18.0
2015-Mar-30 09:00 280 12 17.0
2015-Mar-30 08:30 310 8 16.0
2015-Mar-30 08:00 280 11 16.0
2015-Mar-30 07:30 270 11 16.0
2015-Mar-30 07:00 260 12 5.415.0
2015-Mar-30 06:30 260 11 5.411.0
2015-Mar-30 06:00 260 10 5.411.0
2015-Mar-30 05:30 250 11 5.411.0
2015-Mar-30 05:00 280 13 5.412.0
2015-Mar-30 04:30 260 13 5.412.0
2015-Mar-30 04:00 280 11 5.413.0
2015-Mar-30 03:30 280 10 5.413.0
2015-Mar-30 03:00 280 11 5.413.0
2015-Mar-30 02:30 270 12 5.414.0
2015-Mar-30 02:00 270 12 5.414.0
2015-Mar-30 01:30 260 9 5.413.0
2015-Mar-30 01:00 250 9 5.412.0